Погода в Заозерье

Россия / Новгородская область     58°25′18″N   33°10′04″E
темп.,
°C
ветер,
м/с
пор.,
м/с
влажн.,
%
обл.,
%
осадки,
мм/ч
давл.,
гПа
погр.,
м
8 марта, пн
пн800:00−7сз71190100 1.3 9921014
03:00−10ссз51193100 1.5 996436
06:00−10ссз31094100 0.1 999510
09:00−10с5989100 0.2 1003600
12:00−10с4885100 0.1 1007620
15:00−8ссз5882100 0.1 1009741
18:00−10ссз388997 0.0 1011536
21:00−13ссз389696 0.1 1014310
9 марта, вт
вт900:00−16ссз249894 0.0 1015117
03:00−19ссз249770 0.0 1017110
06:00−21с249829 0.0 1018129
09:00−20с249344 0.0 1020214
12:00−15с237511 0.0 1022459
15:00−13с34766 0.0 1022577
18:00−15с24900 0.0 1023161
21:00−19ссв23960 0.0 102653
10 марта, ср
ср1000:00−21всв25985 0.0 102790
03:00−23в24973 0.0 1029101
06:00−24в22960 0.0 103036
09:00−21в23870 0.0 1032152
12:00−14вюв22664 0.0 1032297
15:00−10вюв116017 0.0 1031571
18:00−13ссв11744 0.0 103120
21:00−16ссв118416 0.0 103220
11 марта, чт
чт1100:00−17ю118777 0.0 103220
03:00−18ююв128641 0.0 103220
06:00−18ююв22860 0.0 103126
09:00−15ююв37720 0.0 1031224
12:00−8ю48600 0.0 1029615
15:00−7ю496338 0.0 1027689
18:00−8ю398187 0.0 1025487
21:00−11ю3118943 0.0 1025335
12 марта, пт
пт1200:00−12ю310920 0.0 1024313
03:00−13ю311930 0.0 1022294
06:00−13ююв411910 0.0 1020337
09:00−9ю514750 0.0 1018536
12:00−5ю613730 0.0 1016750
15:00−2ююв713700 0.0 1013999
18:00−4ююв6147826 0.0 1012969
21:00−5ю6149163 0.3 10111085